This demonstration page uses our WeatherBlox Daily Observations layout. Learn more.

38.88101, -77.10428

Hourly Observations for March 4, 2017

Temp ( °F °C ) Dew Point ( °F °C ) Humidity (%) Winds ( mph kmh ) Pressure ( in mb ) Visibility ( mi km ) Precip ( " mm )
12:52 am 00:52 Mostly Clear 30 -1.1 11 -11.7 45 45 NNW 12 19 30.56 1035 10 16.09344 0 0
1:52 am 01:52 Mostly Clear 30 -1.1 10 -12.2 43 43 NNW 12 19 30.56 1035 10 16.09344 0 0
2:52 am 02:52 Cloudy 28 -2.2 10 -12.2 47 47 N 7 11 30.56 1035 10 16.09344 0 0
3:52 am 03:52 Partly Cloudy 28 -2.2 9 -12.8 44 44 NW 6 9 30.56 1035 10 16.09344 0 0
4:52 am 04:52 Clear 28 -2.2 9 -12.8 44 44 N 3 6 30.56 1035 10 16.09344 0 0
5:52 am 05:52 Clear 27 -2.8 13 -10.6 55 55 S 5 7 30.59 1036 10 16.09344 0 0
6:52 am 06:52 Mostly Sunny 26 -3.3 13 -10.6 57 57 SW 6 9 30.59 1036 10 16.09344 0 0
7:52 am 07:52 Mostly Sunny 31 -0.6 13 -10.6 47 47 W 7 11 30.59 1036 10 16.09344 0 0
8:52 am 08:52 Mostly Sunny 34 1.1 12 -11.1 40 40 WNW 10 17 30.62 1037 10 16.09344 0 0
9:52 am 09:52 Mostly Sunny 36 2.2 9 -12.8 32 32 W 14 22 30.59 1036 10 16.09344 0 0
10:52 am 10:52 Mostly Sunny 37 2.8 9 -12.8 31 31 W 15 24 30.59 1036 10 16.09344 0 0
11:52 am 11:52 Mostly Sunny 39 3.9 9 -12.8 29 29 WNW 13 20 30.59 1036 10 16.09344 0 0
12:52 pm 12:52 Partly Cloudy 41 5 8 -13.3 25 25 NW 22 35 30.56 1035 10 16.09344 0 0
1:52 pm 13:52 Mostly Sunny 42 5.6 9 -12.8 25 25 NW 15 24 30.53 1034 10 16.09344 0 0
2:52 pm 14:52 Mostly Sunny 43 6.1 8 -13.3 24 24 NNW 21 33 30.5 1033 10 16.09344 0 0
3:52 pm 15:52 Mostly Sunny 43 6.1 7 -13.9 22 22 NW 20 31 30.5 1033 10 16.09344 0 0
4:52 pm 16:52 Sunny 42 5.6 6 -14.4 22 22 NW 16 26 30.5 1033 10 16.09344 0 0
5:52 pm 17:52 Sunny 40 4.4 7 -13.9 25 25 NNW 14 22 30.53 1034 10 16.09344 0 0
6:52 pm 18:52 Clear 38 3.3 8 -13.3 29 29 N 10 17 30.56 1035 10 16.09344 0 0
7:52 pm 19:52 Clear 36 2.2 10 -12.2 34 34 N 14 22 30.56 1035 10 16.09344 0 0
8:52 pm 20:52 Clear 35 1.7 10 -12.2 35 35 N 16 26 30.59 1036 10 16.09344 0 0
9:52 pm 21:52 Clear 34 1.1 9 -12.8 35 35 N 14 22 30.59 1036 10 16.09344 0 0
10:52 pm 22:52 Clear 33 0.6 8 -13.3 35 35 N 13 20 30.62 1037 10 16.09344 0 0
11:52 pm 23:52 Clear 32 0 9 -12.8 38 38 NNE 15 24 30.62 1037 10 16.09344 0 0

Powered by AerisWeather